This demonstration page uses our WeatherBlox Daily Observations layout. Learn more.

Left ArrowRight Arrow

31.84235, -102.49876

Hourly Observations for July 22, 2022

Temp ( °F °C ) Dew Point ( °F °C ) Humidity (%) Winds ( mph kmh ) Pressure ( in mb ) Visibility ( mi km ) Precip ( " mm )
12:53 am 00:53 Clear 86 30 57 13.9 37 37 ESE 14 22 29.84 1010 10 16 0.00 0.00
1:53 am 01:53 Clear 85 29.4 58 14.4 40 40 S 10 17 29.84 1011 10 16 0.00 0.00
2:53 am 02:53 Clear 84 28.9 59 15 43 43 S 7 11 29.82 1010 10 16 0.00 0.00
3:53 am 03:53 Clear 83 28.3 61 16.1 48 48 SSE 7 11 29.82 1010 10 16 0.00 0.00
4:53 am 04:53 Clear 82 27.8 61 16.1 49 49 S 8 13 29.83 1010 10 16 0.00 0.00
5:53 am 05:53 Clear 81 27.2 62 16.7 53 53 SE 7 11 29.84 1011 10 16 0.00 0.00
6:53 am 06:53 Clear 80 26.7 64 17.8 58 58 SSE 12 19 29.86 1011 10 16 0.00 0.00
7:53 am 07:53 Sunny 81 27.2 65 18.3 58 58 S 13 20 29.88 1012 8 13 0.00 0.00
8:53 am 08:53 Sunny 82 27.8 65 18.3 56 56 S 14 22 29.89 1012 8 13 0.00 0.00
9:53 am 09:53 Sunny 84 28.9 64 17.8 51 51 S 14 22 29.90 1012 9 14 0.00 0.00
10:53 am 10:53 Sunny 88 31.1 64 17.8 45 45 S 15 24 29.89 1012 9 14 0.00 0.00
11:53 am 11:53 Sunny 90 32.2 64 17.8 42 42 S 15 24 29.89 1012 9 14 0.00 0.00
12:53 pm 12:53 Sunny 92 33.3 64 17.8 40 40 S 10 17 29.88 1012 10 16 0.00 0.00
1:53 pm 13:53 Mostly Sunny 94 34.4 62 16.7 35 35 VRB 6 9 29.86 1011 10 16 0.00 0.00
2:53 pm 14:53 Partly Cloudy 96 35.6 59 15 29 29 undefined N/A 29.84 1010 10 16 0.00 0.00
3:53 pm 15:53 Mostly Sunny 97 36.1 58 14.4 27 27 S 9 15 29.81 1010 10 16 0.00 0.00
4:53 pm 16:53 Sunny 98 36.7 57 13.9 25 25 S 10 17 29.80 1009 10 16 0.00 0.00
5:53 pm 17:53 Partly Cloudy 99 37.2 57 13.9 25 25 SE 12 19 29.80 1009 10 16 0.00 0.00
6:53 pm 18:53 Mostly Sunny 97 36.1 55 12.8 24 24 ESE 15 24 29.79 1009 10 16 0.00 0.00
7:53 pm 19:53 Mostly Sunny 95 35 57 13.9 28 28 E 12 19 29.80 1009 9 14 0.00 0.00
8:53 pm 20:53 Sunny 92 33.3 58 14.4 32 32 ESE 10 17 29.80 1009 9 14 0.00 0.00
9:53 pm 21:53 Mostly Clear 91 32.8 58 14.4 33 33 ESE 15 24 29.83 1010 10 16 0.00 0.00
10:53 pm 22:53 Mostly Cloudy 90 32.2 59 15 35 35 SSE 16 26 29.85 1011 10 16 0.00 0.00
11:53 pm 23:53 Clear 89 31.7 59 15 36 36 S 12 19 29.86 1011 10 16 0.00 0.00

Powered by AerisWeather